sat.trackr.live / text

‹ back to catalog

STARLINK-11100 [DTC]

NORAD 59713 · 2024-088F

PAYLOAD ACTIVE UNKNOWN

§ Identity

Operator
Country
US
Launch date
2024-05-10
Launch site
AFWTR
Launch vehicle
Mass (kg)
RCS (m²)

Purposes: comms

External: N2YO · Heavens-Above · Gunter

§ Orbital elements

Epoch: 2026-09-21T19:22:14.125152Z

Period
91.74 min
Inclination
53.1593°
Eccentricity
0.0000949
Mean motion
15.69712253 rev/d
Perigee alt
359.1 km
Apogee alt
360.4 km
Semi-major
6,737.9 km
B*
4.6764e-6
RAAN
79.5596°
Arg perigee
91.0365°
Mean anomaly
269.0762°
Rev number
13,707

§ Raw data

STARLINK-11100 [DTC]1 59713U 24088F   26264.80710793 -.00000022  00000+0  46764-5 0  99982 59713  53.1593  79.5596 0000949  91.0365 269.0762 15.69712253137071

JSON: /api/v1/satellites/59713 · /tle

For live sub-satellite position, see the globe view (requires WebGL).

§ Visibility from observer

Set your observer location to see the next 7 days of passes ≥ 10°. The values pass through the URL so the page stays shareable.

No JS? Fill the form by hand. The geolocation button needs JavaScript.